Time,TemperatureF,DewpointF,PressureIn,WindDirection,WindDirectionDegrees,WindSpeedMPH,WindSpeedGustMPH,Humidity,HourlyPrecipIn,Conditions,Clouds,dailyrainin,SoftwareType,DateUTC
2013-03-15 00:03:00,57.0,-99.9,30.31,SW,229,6.0,8.0,-999,-99.99,,,-99.99,,2013-03-15 05:03:00,
2013-03-15 00:12:00,57.0,-99.9,30.31,SW,228,6.0,9.0,-999,-99.99,,,-99.99,,2013-03-15 05:12:00,
2013-03-15 00:23:00,57.0,-99.9,30.31,North,-999,-999.0,-999.0,-999,-99.99,,,-99.99,,2013-03-15 05:23:00,
2013-03-15 00:32:00,57.0,-99.9,30.31,SW,233,7.0,9.0,-999,-99.99,,,-99.99,,2013-03-15 05:32:00,
2013-03-15 00:42:00,56.0,-99.9,30.31,SW,231,6.0,8.0,-999,-99.99,,,-99.99,,2013-03-15 05:42:00,
2013-03-15 00:52:00,56.0,-99.9,30.30,North,-999,-999.0,-999.0,-999,-99.99,,,-99.99,,2013-03-15 05:52:00,
2013-03-15 01:02:00,57.0,-99.9,30.30,WSW,241,7.0,11.0,-999,-99.99,,,-99.99,,2013-03-15 06:02:00,
2013-03-15 01:13:00,57.0,-99.9,30.30,WSW,246,7.0,11.0,-999,-99.99,,,-99.99,,2013-03-15 06:13:00,
2013-03-15 01:22:00,57.0,-99.9,30.29,WSW,242,7.0,9.0,-999,-99.99,,,-99.99,,2013-03-15 06:22:00,
2013-03-15 01:33:00,57.0,-99.9,30.29,WSW,243,6.0,10.0,-999,-99.99,,,-99.99,,2013-03-15 06:33:00,
2013-03-15 01:42:00,57.0,-99.9,30.28,WSW,249,8.0,11.0,-999,-99.99,,,-99.99,,2013-03-15 06:42:00,
2013-03-15 01:53:00,57.0,-99.9,30.28,WSW,242,6.0,7.0,-999,-99.99,,,-99.99,,2013-03-15 06:53:00,
2013-03-15 02:02:00,57.0,-99.9,30.28,WSW,240,6.0,9.0,-999,-99.99,,,-99.99,,2013-03-15 07:02:00,
2013-03-15 02:13:00,57.0,-99.9,30.28,WSW,241,5.0,7.0,-999,-99.99,,,-99.99,,2013-03-15 07:13:00,
2013-03-15 02:22:00,57.0,-99.9,30.28,WSW,244,6.0,8.0,-999,-99.99,,,-99.99,,2013-03-15 07:22:00,
2013-03-15 02:32:00,57.0,-99.9,30.27,WSW,248,5.0,7.0,-999,-99.99,,,-99.99,,2013-03-15 07:32:00,
2013-03-15 02:42:00,57.0,-99.9,30.27,WSW,253,5.0,7.0,-999,-99.99,,,-99.99,,2013-03-15 07:42:00,
2013-03-15 02:52:00,57.0,-99.9,30.26,North,-999,-999.0,-999.0,-999,-99.99,,,-99.99,,2013-03-15 07:52:00,
2013-03-15 03:03:00,57.0,-99.9,30.26,WSW,248,6.0,7.0,-999,-99.99,,,-99.99,,2013-03-15 08:03:00,
2013-03-15 03:12:00,56.0,-99.9,30.26,West,261,5.0,7.0,-999,-99.99,,,-99.99,,2013-03-15 08:12:00,
2013-03-15 03:23:00,56.0,-99.9,30.26,North,-999,-999.0,-999.0,-999,-99.99,,,-99.99,,2013-03-15 08:23:00,
2013-03-15 03:33:00,55.0,-99.9,30.26,West,279,6.0,9.0,-999,-99.99,,,-99.99,,2013-03-15 08:33:00,
2013-03-15 03:42:00,56.0,-99.9,30.25,West,264,8.0,12.0,-999,-99.99,,,-99.99,,2013-03-15 08:42:00,
2013-03-15 03:53:00,56.0,-99.9,30.25,WSW,257,7.0,10.0,-999,-99.99,,,-99.99,,2013-03-15 08:53:00,
2013-03-15 04:02:00,56.0,-99.9,30.25,West,274,6.0,9.0,-999,-99.99,,,-99.99,,2013-03-15 09:02:00,
2013-03-15 04:12:00,55.0,-99.9,30.25,WNW,286,5.0,8.0,-999,-99.99,,,-99.99,,2013-03-15 09:12:00,
2013-03-15 04:22:00,54.0,-99.9,30.25,WNW,290,4.0,5.0,-999,-99.99,,,-99.99,,2013-03-15 09:22:00,
2013-03-15 04:33:00,53.0,-99.9,30.25,WNW,298,4.0,5.0,-999,-99.99,,,-99.99,,2013-03-15 09:33:00,
2013-03-15 04:43:00,53.0,-99.9,30.25,NW,323,3.0,3.0,-999,-99.99,,,-99.99,,2013-03-15 09:43:00,
2013-03-15 04:53:00,52.0,-99.9,30.25,NNW,334,3.0,3.0,-999,-99.99,,,-99.99,,2013-03-15 09:53:00,
2013-03-15 05:03:00,52.0,-99.9,30.25,NNW,346,3.0,4.0,-999,-99.99,,,-99.99,,2013-03-15 10:03:00,
2013-03-15 05:13:00,52.0,-99.9,30.25,North,358,3.0,4.0,-999,-99.99,,,-99.99,,2013-03-15 10:13:00,
2013-03-15 05:23:00,52.0,-99.9,30.26,North,357,2.0,3.0,-999,-99.99,,,-99.99,,2013-03-15 10:23:00,
2013-03-15 05:33:00,52.0,-99.9,30.26,North,356,2.0,2.0,-999,-99.99,,,-99.99,,2013-03-15 10:33:00,
2013-03-15 05:43:00,52.0,-99.9,30.26,North,-999,-999.0,-999.0,-999,-99.99,,,-99.99,,2013-03-15 10:43:00,
2013-03-15 05:52:00,52.0,-99.9,30.26,North,-999,-999.0,-999.0,-999,-99.99,,,-99.99,,2013-03-15 10:52:00,
2013-03-15 06:03:00,52.0,-99.9,30.26,NE,37,2.0,3.0,-999,-99.99,,,-99.99,,2013-03-15 11:03:00,
2013-03-15 06:12:00,52.0,-99.9,30.26,North,-999,-999.0,-999.0,-999,-99.99,,,-99.99,,2013-03-15 11:12:00,
2013-03-15 06:23:00,51.0,-99.9,30.27,NE,45,2.0,3.0,-999,-99.99,,,-99.99,,2013-03-15 11:23:00,
2013-03-15 06:33:00,51.0,-99.9,30.27,NNE,33,0.0,1.0,-999,-99.99,,,-99.99,,2013-03-15 11:33:00,
2013-03-15 06:43:00,51.0,-99.9,30.27,North,-999,-999.0,-999.0,-999,-99.99,,,-99.99,,2013-03-15 11:43:00,
2013-03-15 06:53:00,51.0,-99.9,30.27,North,-999,-999.0,-999.0,-999,-99.99,,,-99.99,,2013-03-15 11:53:00,
2013-03-15 07:02:00,50.0,-99.9,30.27,NNE,32,2.0,3.0,-999,-99.99,,,-99.99,,2013-03-15 12:02:00,
2013-03-15 07:12:00,50.0,-99.9,30.27,NNE,22,3.0,3.0,-999,-99.99,,,-99.99,,2013-03-15 12:12:00,
2013-03-15 07:23:00,50.0,-99.9,30.28,NNE,22,2.0,3.0,-999,-99.99,,,-99.99,,2013-03-15 12:23:00,
2013-03-15 07:32:00,50.0,-99.9,30.28,North,2,1.0,1.0,-999,-99.99,,,-99.99,,2013-03-15 12:32:00,
2013-03-15 07:42:00,50.0,-99.9,30.28,NNW,339,2.0,2.0,-999,-99.99,,,-99.99,,2013-03-15 12:42:00,
2013-03-15 07:52:00,51.0,-99.9,30.29,North,-999,-999.0,-999.0,-999,-99.99,,,-99.99,,2013-03-15 12:52:00,
2013-03-15 08:02:00,51.0,-99.9,30.29,NNW,342,1.0,2.0,-999,-99.99,,,-99.99,,2013-03-15 13:02:00,
2013-03-15 08:12:00,52.0,-99.9,30.29,NNW,336,3.0,3.0,-999,-99.99,,,-99.99,,2013-03-15 13:12:00,
2013-03-15 08:22:00,53.0,-99.9,30.29,NNW,333,3.0,3.0,-999,-99.99,,,-99.99,,2013-03-15 13:22:00,
2013-03-15 08:32:00,53.0,-99.9,30.29,NNW,345,2.0,2.0,-999,-99.99,,,-99.99,,2013-03-15 13:32:00,
2013-03-15 08:42:00,54.0,-99.9,30.29,North,-999,-999.0,-999.0,-999,-99.99,,,-99.99,,2013-03-15 13:42:00,
2013-03-15 08:53:00,55.0,-99.9,30.30,NW,323,2.0,2.0,-999,-99.99,,,-99.99,,2013-03-15 13:53:00,
2013-03-15 09:02:00,56.0,-99.9,30.30,NW,312,2.0,3.0,-999,-99.99,,,-99.99,,2013-03-15 14:02:00,
2013-03-15 09:12:00,57.0,-99.9,30.30,WNW,303,3.0,3.0,-999,-99.99,,,-99.99,,2013-03-15 14:12:00,
2013-03-15 09:22:00,57.0,-99.9,30.30,NW,309,3.0,4.0,-999,-99.99,,,-99.99,,2013-03-15 14:22:00,
2013-03-15 09:33:00,58.0,-99.9,30.30,West,273,2.0,4.0,-999,-99.99,,,-99.99,,2013-03-15 14:33:00,
2013-03-15 09:42:00,58.0,-99.9,30.31,West,281,4.0,6.0,-999,-99.99,,,-99.99,,2013-03-15 14:42:00,
2013-03-15 09:53:00,59.0,-99.9,30.31,North,-999,-999.0,-999.0,-999,-99.99,,,-99.99,,2013-03-15 14:53:00,
2013-03-15 10:02:00,59.0,-99.9,30.31,WSW,248,4.0,5.0,-999,-99.99,,,-99.99,,2013-03-15 15:02:00,
2013-03-15 10:13:00,59.0,-99.9,30.31,WSW,245,6.0,9.0,-999,-99.99,,,-99.99,,2013-03-15 15:13:00,
2013-03-15 10:23:00,59.0,-99.9,30.31,SW,233,6.0,10.0,-999,-99.99,,,-99.99,,2013-03-15 15:23:00,
2013-03-15 10:33:00,60.0,-99.9,30.31,WSW,247,7.0,10.0,-999,-99.99,,,-99.99,,2013-03-15 15:33:00,
2013-03-15 10:43:00,60.0,-99.9,30.31,WSW,245,6.0,8.0,-999,-99.99,,,-99.99,,2013-03-15 15:43:00,
2013-03-15 10:53:00,59.0,-99.9,30.31,WSW,256,6.0,8.0,-999,-99.99,,,-99.99,,2013-03-15 15:53:00,
2013-03-15 11:03:00,60.0,-99.9,30.31,West,260,6.0,8.0,-999,-99.99,,,-99.99,,2013-03-15 16:03:00,
2013-03-15 11:13:00,60.0,-99.9,30.31,West,263,7.0,9.0,-999,-99.99,,,-99.99,,2013-03-15 16:13:00,
2013-03-15 11:23:00,61.0,-99.9,30.30,WSW,244,7.0,10.0,-999,-99.99,,,-99.99,,2013-03-15 16:23:00,
2013-03-15 11:32:00,61.0,-99.9,30.30,WSW,241,9.0,11.0,-999,-99.99,,,-99.99,,2013-03-15 16:32:00,
2013-03-15 11:42:00,61.0,-99.9,30.30,WSW,252,7.0,11.0,-999,-99.99,,,-99.99,,2013-03-15 16:42:00,
2013-03-15 11:53:00,61.0,-99.9,30.29,WSW,252,9.0,11.0,-999,-99.99,,,-99.99,,2013-03-15 16:53:00,
2013-03-15 12:02:00,62.0,-99.9,30.29,WSW,247,8.0,12.0,-999,-99.99,,,-99.99,,2013-03-15 17:02:00,
2013-03-15 12:23:00,63.0,-99.9,30.29,North,-999,-999.0,-999.0,-999,-99.99,,,-99.99,,2013-03-15 17:23:00,
2013-03-15 12:33:00,62.0,-99.9,30.28,SW,228,11.0,15.0,-999,-99.99,,,-99.99,,2013-03-15 17:33:00,
2013-03-15 12:43:00,63.0,-99.9,30.27,WSW,252,11.0,14.0,-999,-99.99,,,-99.99,,2013-03-15 17:43:00,
2013-03-15 12:53:00,63.0,-99.9,30.27,North,-999,-999.0,-999.0,-999,-99.99,,,-99.99,,2013-03-15 17:53:00,
2013-03-15 13:03:00,64.0,-99.9,30.27,WSW,249,11.0,14.0,-999,-99.99,,,-99.99,,2013-03-15 18:03:00,
2013-03-15 13:12:00,63.0,-99.9,30.26,SW,230,9.0,13.0,-999,-99.99,,,-99.99,,2013-03-15 18:12:00,
2013-03-15 13:22:00,62.0,-99.9,30.26,SW,234,11.0,14.0,-999,-99.99,,,-99.99,,2013-03-15 18:22:00,
2013-03-15 13:32:00,63.0,-99.9,30.26,SW,233,10.0,16.0,-999,-99.99,,,-99.99,,2013-03-15 18:32:00,
2013-03-15 13:42:00,63.0,-99.9,30.25,SW,215,11.0,15.0,-999,-99.99,,,-99.99,,2013-03-15 18:42:00,
2013-03-15 13:53:00,63.0,-99.9,30.25,North,-999,-999.0,-999.0,-999,-99.99,,,-99.99,,2013-03-15 18:53:00,
2013-03-15 14:02:00,63.0,-99.9,30.25,SW,221,11.0,15.0,-999,-99.99,,,-99.99,,2013-03-15 19:02:00,
2013-03-15 14:12:00,64.0,-99.9,30.24,WSW,237,10.0,16.0,-999,-99.99,,,-99.99,,2013-03-15 19:12:00,
2013-03-15 14:23:00,64.0,-99.9,30.23,SW,230,11.0,16.0,-999,-99.99,,,-99.99,,2013-03-15 19:23:00,
2013-03-15 14:32:00,65.0,-99.9,30.23,SW,222,9.0,13.0,-999,-99.99,,,-99.99,,2013-03-15 19:32:00,
2013-03-15 14:42:00,64.0,-99.9,30.22,SW,217,10.0,14.0,-999,-99.99,,,-99.99,,2013-03-15 19:42:00,
2013-03-15 14:53:00,65.0,-99.9,30.22,SW,232,10.0,15.0,-999,-99.99,,,-99.99,,2013-03-15 19:53:00,
2013-03-15 15:03:00,64.0,-99.9,30.21,SW,219,13.0,16.0,-999,-99.99,,,-99.99,,2013-03-15 20:03:00,
2013-03-15 15:12:00,64.0,-99.9,30.21,SW,224,11.0,19.0,-999,-99.99,,,-99.99,,2013-03-15 20:12:00,
2013-03-15 15:22:00,64.0,-99.9,30.20,SW,226,11.0,16.0,-999,-99.99,,,-99.99,,2013-03-15 20:22:00,
2013-03-15 15:32:00,65.0,-99.9,30.20,SW,227,11.0,16.0,-999,-99.99,,,-99.99,,2013-03-15 20:32:00,
2013-03-15 15:42:00,65.0,-99.9,30.19,SW,225,11.0,17.0,-999,-99.99,,,-99.99,,2013-03-15 20:42:00,
2013-03-15 15:52:00,66.0,-99.9,30.18,SW,217,9.0,13.0,-999,-99.99,,,-99.99,,2013-03-15 20:52:00,
2013-03-15 16:02:00,65.0,-99.9,30.18,SW,217,11.0,16.0,-999,-99.99,,,-99.99,,2013-03-15 21:02:00,
2013-03-15 16:12:00,66.0,-99.9,30.18,SSW,210,12.0,16.0,-999,-99.99,,,-99.99,,2013-03-15 21:12:00,
2013-03-15 16:22:00,65.0,-99.9,30.17,North,-999,-999.0,-999.0,-999,-99.99,,,-99.99,,2013-03-15 21:22:00,
2013-03-15 16:33:00,65.0,-99.9,30.17,SSW,196,14.0,18.0,-999,-99.99,,,-99.99,,2013-03-15 21:33:00,
2013-03-15 16:43:00,64.0,-99.9,30.17,SSW,192,12.0,17.0,-999,-99.99,,,-99.99,,2013-03-15 21:43:00,
2013-03-15 16:53:00,65.0,-99.9,30.17,North,-999,-999.0,-999.0,-999,-99.99,,,-99.99,,2013-03-15 21:53:00,
2013-03-15 17:04:00,65.0,-99.9,30.17,SSW,197,11.0,14.0,-999,-99.99,,,-99.99,,2013-03-15 22:04:00,
2013-03-15 17:14:00,64.0,-99.9,30.16,SSW,197,11.0,16.0,-999,-99.99,,,-99.99,,2013-03-15 22:14:00,
2013-03-15 17:22:00,65.0,-99.9,30.16,North,-999,-999.0,-999.0,-999,-99.99,,,-99.99,,2013-03-15 22:22:00,
2013-03-15 17:33:00,65.0,-99.9,30.16,SSW,206,10.0,14.0,-999,-99.99,,,-99.99,,2013-03-15 22:33:00,
2013-03-15 17:42:00,65.0,-99.9,30.16,SSW,197,10.0,12.0,-999,-99.99,,,-99.99,,2013-03-15 22:42:00,
2013-03-15 17:53:00,64.0,-99.9,30.16,North,-999,-999.0,-999.0,-999,-99.99,,,-99.99,,2013-03-15 22:53:00,
2013-03-15 18:03:00,64.0,-99.9,30.16,South,191,11.0,15.0,-999,-99.99,,,-99.99,,2013-03-15 23:03:00,
2013-03-15 18:12:00,64.0,-99.9,30.16,SSW,192,10.0,13.0,-999,-99.99,,,-99.99,,2013-03-15 23:12:00,
2013-03-15 18:22:00,64.0,-99.9,30.16,SSW,194,10.0,13.0,-999,-99.99,,,-99.99,,2013-03-15 23:22:00,
2013-03-15 18:32:00,64.0,-99.9,30.16,South,191,9.0,13.0,-999,-99.99,,,-99.99,,2013-03-15 23:32:00,
2013-03-15 18:53:00,63.0,-99.9,30.17,North,-999,-999.0,-999.0,-999,-99.99,,,-99.99,,2013-03-15 23:53:00,
2013-03-15 19:03:00,63.0,-99.9,30.17,SSW,193,9.0,12.0,-999,-99.99,,,-99.99,,2013-03-16 00:03:00,
2013-03-15 19:12:00,63.0,-99.9,30.17,North,-999,-999.0,-999.0,-999,-99.99,,,-99.99,,2013-03-16 00:12:00,
2013-03-15 19:22:00,62.0,-99.9,30.17,SSW,198,11.0,14.0,-999,-99.99,,,-99.99,,2013-03-16 00:22:00,
2013-03-15 19:32:00,62.0,-99.9,30.17,SSW,198,11.0,14.0,-999,-99.99,,,-99.99,,2013-03-16 00:32:00,
2013-03-15 19:42:00,62.0,-99.9,30.17,SSW,196,10.0,13.0,-999,-99.99,,,-99.99,,2013-03-16 00:42:00,
2013-03-15 19:52:00,62.0,-99.9,30.17,SSW,203,8.0,11.0,-999,-99.99,,,-99.99,,2013-03-16 00:52:00,
2013-03-15 20:03:00,62.0,-99.9,30.17,SSW,204,7.0,12.0,-999,-99.99,,,-99.99,,2013-03-16 01:03:00,
2013-03-15 20:12:00,62.0,-99.9,30.17,SSW,200,7.0,10.0,-999,-99.99,,,-99.99,,2013-03-16 01:12:00,
2013-03-15 20:22:00,62.0,-99.9,30.17,SSW,198,8.0,11.0,-999,-99.99,,,-99.99,,2013-03-16 01:22:00,
2013-03-15 20:32:00,62.0,-99.9,30.17,SSW,205,8.0,10.0,-999,-99.99,,,-99.99,,2013-03-16 01:32:00,
2013-03-15 20:42:00,62.0,-99.9,30.17,SSW,201,8.0,11.0,-999,-99.99,,,-99.99,,2013-03-16 01:42:00,
2013-03-15 20:53:00,62.0,-99.9,30.17,North,-999,-999.0,-999.0,-999,-99.99,,,-99.99,,2013-03-16 01:53:00,
2013-03-15 21:02:00,62.0,-99.9,30.17,SSW,197,9.0,12.0,-999,-99.99,,,-99.99,,2013-03-16 02:02:00,
2013-03-15 21:13:00,61.0,-99.9,30.17,SSW,202,7.0,9.0,-999,-99.99,,,-99.99,,2013-03-16 02:13:00,
2013-03-15 21:23:00,61.0,-99.9,30.17,SSW,199,6.0,9.0,-999,-99.99,,,-99.99,,2013-03-16 02:23:00,
2013-03-15 21:33:00,61.0,-99.9,30.17,SSW,203,7.0,10.0,-999,-99.99,,,-99.99,,2013-03-16 02:33:00,
2013-03-15 21:43:00,61.0,-99.9,30.17,SSW,196,8.0,10.0,-999,-99.99,,,-99.99,,2013-03-16 02:43:00,
2013-03-15 21:53:00,61.0,-99.9,30.17,SSW,202,7.0,12.0,-999,-99.99,,,-99.99,,2013-03-16 02:53:00,
2013-03-15 22:02:00,61.0,-99.9,30.18,SSW,201,7.0,9.0,-999,-99.99,,,-99.99,,2013-03-16 03:02:00,
2013-03-15 22:12:00,61.0,-99.9,30.18,SSW,202,7.0,9.0,-999,-99.99,,,-99.99,,2013-03-16 03:12:00,
2013-03-15 22:22:00,61.0,-99.9,30.18,SSW,202,6.0,9.0,-999,-99.99,,,-99.99,,2013-03-16 03:22:00,
2013-03-15 22:33:00,61.0,-99.9,30.18,SSW,201,7.0,9.0,-999,-99.99,,,-99.99,,2013-03-16 03:33:00,
2013-03-15 22:43:00,61.0,-99.9,30.17,SSW,204,8.0,11.0,-999,-99.99,,,-99.99,,2013-03-16 03:43:00,
2013-03-15 22:53:00,61.0,-99.9,30.17,SSW,198,9.0,12.0,-999,-99.99,,,-99.99,,2013-03-16 03:53:00,
2013-03-15 23:03:00,61.0,-99.9,30.17,SSW,200,8.0,11.0,-999,-99.99,,,-99.99,,2013-03-16 04:03:00,
2013-03-15 23:13:00,61.0,-99.9,30.17,SSW,201,7.0,9.0,-999,-99.99,,,-99.99,,2013-03-16 04:13:00,
2013-03-15 23:23:00,61.0,-99.9,30.16,SSW,199,9.0,14.0,-999,-99.99,,,-99.99,,2013-03-16 04:23:00,
2013-03-15 23:33:00,61.0,-99.9,30.16,SSW,200,8.0,12.0,-999,-99.99,,,-99.99,,2013-03-16 04:33:00,
2013-03-15 23:43:00,61.0,-99.9,30.16,SSW,203,7.0,11.0,-999,-99.99,,,-99.99,,2013-03-16 04:43:00,
2013-03-15 23:53:00,61.0,-99.9,30.16,SSW,204,8.0,11.0,-999,-99.99,,,-99.99,,2013-03-16 04:53:00,